Weather in Rossoni

Belarus     55°54′12″N   28°48′50″E
temp.,
°C
wind,
m/s
gust,
m/s
humid.,
%
clouds,
%
prec.,
mm/h
press.,
hPa
HPBL,
m
18 april, sun
sun1800:00+8ne3119227 0.0 1022263
03:00+7ne3109336 0.0 1021273
06:00+6nne399188 0.0 1022230
09:00+9ne595966 0.0 1022499
12:00+13ene57380 0.0 10221063
15:00+15ene57370 0.0 10221651
18:00+14ene46425 0.0 10221935
21:00+9ne38645 0.0 1023167
19 april, mon
mon1900:00+7ne38735 0.0 1024172
03:00+5ene398023 0.0 1024254
06:00+4ene38885 0.0 1024203
09:00+8ene36675 0.0 1025489
12:00+12ene465218 0.0 10241646
15:00+12ene5555100 0.1 10241351
18:00+10ene466161 0.0 1024961
21:00+8e3874100 0.1 1024557
20 april, tue
tue2000:00+7e3778100 0.1 1024575
03:00+6ene2681100 0.1 1023362
06:00+5ene3782100 0.1 1022442
09:00+6ene458099 0.2 1021757
12:00+7ene4560100 0.1 10191297
15:00+7ene3557100 0.1 10181116
18:00+8ene345498 0.0 10161283
21:00+6ene2573100 0.1 1015296
21 april, wed
wed2100:00+3ne238829 0.0 101380
03:00+1n249429 0.0 1011102
06:00+1nnw3894100 0.0 1009232
09:00+4nnw4773100 0.0 1007752
12:00+6nw4764100 0.1 10061336
15:00+7wnw4762100 0.1 10061426
18:00+8wnw3755100 0.0 10061454
21:00+5wsw237568 0.1 100759
22 april, thu
thu2200:00+3sw278871 0.0 1008152
03:00+3ssw398682 0.0 1009218
06:00+2ssw28936 0.0 1009157
09:00+8s36665 0.0 1010423
12:00+13ssw585189 0.2 10091745
15:00+12sw586197 1.1 10091336
18:00+7w5888100 1.5 1010469
21:00+5se2291100 4.7 1010167